CW7410 Weather Reports


Display with metric or nautical units.
time (UTC)temp
F
wind
direction
speed
MPH
gust
MPH
rain 1hr
in
rain 24hr
in
rain mn
in
humidity
%
barometer
mb
20260904113102 64 100 8.0 15.0 0.00 0.00 0.00 36 1010.7
20260904111558 64 100 10.0 15.0 0.00 0.00 0.00 35 1010.7
20260904110058 64 136 8.0 18.0 0.00 0.00 0.00 34 1010.6
20260904104602 64 80 11.0 17.0 0.00 0.00 0.00 34 1010.4
20260904103057 63 126 13.0 25.0 0.00 0.00 0.00 35 1010.2
20260904101559 63 124 5.0 13.0 0.00 0.00 0.00 37 1010.0
20260904100104 66 86 5.0 9.0 0.00 0.00 0.00 36 1009.8
20260904094602 67 121 7.0 17.0 0.00 0.00 0.00 33 1009.6
20260904093100 67 162 8.0 16.0 0.00 0.00 0.00 32 1009.4
20260904091602 66 182 10.0 22.0 0.00 0.00 0.00 33 1009.3
20260904090100 67 146 10.0 18.0 0.00 0.00 0.00 33 1009.3
20260904084559 67 136 8.0 17.0 0.00 0.00 0.00 34 1009.2
20260904083102 68 160 9.0 19.0 0.00 0.00 0.00 32 1009.2
20260904081601 68 186 9.0 18.0 0.00 0.00 0.00 32 1009.2
20260904080107 68 159 8.0 15.0 0.00 0.00 0.00 33 1009.2
20260904074558 67 156 7.0 15.0 0.00 0.00 0.00 33 1009.3
20260904073056 67 146 7.0 14.0 0.00 0.00 0.00 34 1009.2
20260904071602 67 184 6.0 14.0 0.00 0.00 0.00 36 1009.2
20260904070100 68 141 8.0 14.0 0.00 0.00 0.00 35 1009.1
20260904064620 68 137 7.0 15.0 0.00 0.00 0.00 36 1009.1
20260904063057 67 136 10.0 19.0 0.00 0.00 0.00 35 1009.0
20260904061558 67 138 10.0 16.0 0.00 0.00 0.00 36 1008.9
20260904060105 65 142 7.0 14.0 0.00 0.00 0.00 39 1008.8
20260904054602 64 167 5.0 11.0 0.00 0.00 0.00 43 1008.8
20260904053104 64 148 5.0 9.0 0.00 0.00 0.00 42 1008.7
20260904051559 63 158 4.0 11.0 0.00 0.00 0.00 44 1008.7
20260904050137 63 126 5.0 16.0 0.00 0.00 0.00 44 1008.7
20260904044601 60 129 6.0 13.0 0.00 0.00 0.00 49 1008.8
20260904043101 59 82 4.0 6.0 0.00 0.00 0.00 50 1008.8
20260904041608 60 106 5.0 9.0 0.00 0.00 0.00 53 1008.9
20260904040105 60 84 3.0 6.0 0.00 0.00 0.00 55 1008.8
20260904034608 62 0 0.0 3.0 0.00 0.00 0.00 55 1008.7
20260904033055 63 38 1.0 3.0 0.00 0.00 0.00 53 1008.7
20260904031556 63 40 2.0 8.0 0.00 0.00 0.00 51 1008.8
20260904030059 64 345 1.0 5.0 0.00 0.00 0.00 49 1008.6
20260904024606 65 360 2.0 6.0 0.00 0.00 0.00 46 1008.7
20260904023100 67 360 4.0 6.0 0.00 0.00 0.00 48 1008.7
20260904021554 69 360 3.0 7.0 0.00 0.00 0.00 45 1008.7
20260904020059 71 17 1.0 3.0 0.00 0.00 0.00 47 1008.7
20260904014613 74 63 1.0 3.0 0.00 0.00 0.00 46 1008.7
20260904013057 76 0 0.0 2.0 0.00 0.00 0.00 42 1008.7
20260904011608 77 69 0.0 3.0 0.00 0.00 0.00 40 1008.8
20260904010056 77 0 0.0 5.0 0.00 0.00 0.00 29 1009.0
20260904004601 77 345 2.0 4.0 0.00 0.00 0.00 34 1009.1
20260904003102 78 0 0.0 2.0 0.00 0.00 0.00 43 1009.2
20260904001558 78 0 1.0 4.0 0.00 0.00 0.00 40 1009.4
20260904000059 79 295 1.0 3.0 0.00 0.00 0.00 33 1009.6
20260903234603 80 0 1.0 6.0 0.00 0.00 0.00 36 1009.7
20260903233059 81 272 3.0 7.0 0.00 0.00 0.00 29 1009.8
20260903231610 82 290 5.0 9.0 0.00 0.00 0.00 26 1009.9
20260903230112 82 227 4.0 9.0 0.00 0.00 0.00 30 1010.1
20260903224557 82 0 2.0 9.0 0.00 0.00 0.00 29 1010.2
20260903223114 82 0 1.0 12.0 0.00 0.00 0.00 30 1010.3
20260903221602 82 271 1.0 7.0 0.00 0.00 0.00 29 1010.5
20260903220108 81 206 6.0 12.0 0.00 0.00 0.00 29 1010.8
20260903214557 81 226 8.0 12.0 0.00 0.00 0.00 29 1010.8
20260903213059 81 292 5.0 13.0 0.00 0.00 0.00 27 1011.0
20260903211615 81 287 6.0 11.0 0.00 0.00 0.00 28 1011.3
20260903210109 81 23 2.0 11.0 0.00 0.00 0.00 31 1011.7
20260903204604 81 213 3.0 11.0 0.00 0.00 0.00 30 1011.9
20260903203105 80 261 4.0 11.0 0.00 0.00 0.00 29 1012.1
20260903201603 80 175 4.0 10.0 0.00 0.00 0.00 30 1012.5
20260903200107 80 230 3.0 6.0 0.00 0.00 0.00 33 1012.7
20260903194602 79 0 1.0 9.0 0.00 0.00 0.00 33 1012.8
20260903193105 78 302 3.0 7.0 0.00 0.00 0.00 33 1013.1
20260903191603 78 119 1.0 8.0 0.00 0.00 0.00 32 1013.3
20260903190106 78 265 1.0 4.0 0.00 0.00 0.00 31 1013.6
20260903184604 77 290 3.0 8.0 0.00 0.00 0.00 32 1013.8
20260903183119 76 0 0.0 11.0 0.00 0.00 0.00 34 1014.0
20260903181623 76 227 3.0 10.0 0.00 0.00 0.00 36 1014.1
20260903180058 76 273 3.0 9.0 0.00 0.00 0.00 32 1014.2
20260903174603 75 280 2.0 8.0 0.00 0.00 0.00 33 1014.3
20260903173110 75 254 1.0 9.0 0.00 0.00 0.00 36 1014.4
20260903171605 75 207 2.0 8.0 0.00 0.00 0.00 35 1014.4
20260903170057 75 0 2.0 6.0 0.00 0.00 0.00 42 1014.5
20260903164608 74 193 0.0 6.0 0.00 0.00 0.00 45 1014.5
20260903163102 73 0 0.0 4.0 0.00 0.00 0.00 45 1014.4
20260903161615 71 295 1.0 4.0 0.00 0.00 0.00 47 1014.4
20260903160106 70 0 1.0 5.0 0.00 0.00 0.00 49 1014.4
20260903154603 69 0 1.0 4.0 0.00 0.00 0.00 52 1014.5
20260903153100 68 202 0.0 5.0 0.00 0.00 0.00 56 1014.5
20260903151614 66 197 1.0 5.0 0.00 0.00 0.00 59 1014.6
20260903150101 64 200 1.0 3.0 0.00 0.00 0.00 66 1014.6
20260903144559 61 202 2.0 4.0 0.00 0.00 0.00 74 1014.5
20260903143057 56 360 2.0 4.0 0.00 0.00 0.00 77 1014.4
20260903141605 53 82 1.0 4.0 0.00 0.00 0.00 78 1014.4
20260903134608 49 114 2.0 5.0 0.00 0.00 0.00 77 1014.0
20260903133100 49 41 4.0 6.0 0.00 0.00 0.00 76 1013.9
20260903131559 49 63 2.0 4.0 0.00 0.00 0.00 75 1013.8
20260903130104 49 68 1.0 3.0 0.00 0.00 0.00 75 1013.8
20260903124606 50 69 1.0 2.0 0.00 0.00 0.00 74 1013.7
20260903123055 50 0 0.0 2.0 0.00 0.00 0.00 74 1013.6
20260903121603 51 0 1.0 3.0 0.00 0.00 0.00 74 1013.6
20260903114601 52 67 0.0 2.0 0.00 0.00 0.00 73 1013.6